Location: Crescent
(42.8242°N, 73.7329°W)
Time: 05:41:46
(UTC+00:00)

Vanguard 2 Rocket - Pass Details

Date: 18 February 2026
Orbit: 553 x 3286 km, 32.9° (Epoch: 13 March)

Event Time Altitude Azimuth Distance (km) Brightness Sun altitude
Rises 22:12:56 0° 274° (W) 6,213 12.7 2.3°
Reaches altitude 10° 22:18:14 10° 266° (W) 4,731 12.5 1.3°
Maximum altitude 22:28:09 30° 213° (SSW) 2,454 9.8 -0.4°
Drops below altitude 10° 22:34:29 10° 154° (SSE) 2,952 9.4 -1.5°
Sets 22:37:00 0° 143° (SE) 3,621 9.7 -2.0°
